Location: Balaclava NSW 2575, Australia
(34.4510°S, 150.4953°E)
Time: 13:33:25
(UTC+10:00)

Envisat - Visible Passes

Search period start: 18 August 2019 00:00
Search period end: 28 August 2019 00:00
Orbit: 764 x 766 km, 98.1° (Epoch: 17 August)

Date Brightness Start Highest point End Pass type
(mag) Time Alt. Az. Time Alt. Az. Time Alt. Az.
18 Aug 4.8 05:35:16 10° NE 05:39:47 33° ESE 05:44:21 10° S visible
18 Aug 3.8 19:26:12 10° S 19:31:12 52° WSW 19:36:07 10° NNW visible
19 Aug 5.9 05:00:39 10° E 05:03:24 15° ESE 05:06:09 10° SSE visible
19 Aug 2.9 18:49:23 10° SSE 18:54:30 66° E 18:59:34 10° N visible
19 Aug 5.9 20:30:41 10° SW 20:32:53 13° WSW 20:35:05 10° W visible
20 Aug 3.7 06:00:09 10° NNE 06:05:09 60° ESE 06:10:13 10° S visible
20 Aug 3.9 18:13:16 10° SE 18:17:38 28° E 18:21:56 10° NNE visible
20 Aug 4.8 19:52:09 10° SSW 19:56:32 29° WSW 20:00:52 10° NW visible
21 Aug 5.3 05:24:28 10° NE 05:28:38 26° ESE 05:32:50 10° SSE visible
21 Aug 3.3 19:14:52 10° S 19:19:59 67° WSW 19:25:02 10° NNW visible
22 Aug 6.1 04:50:46 10° E 04:52:18 11° ESE 04:53:51 10° SE visible
22 Aug 3.1 18:38:13 10° SSE 18:43:14 51° E 18:48:11 10° N visible
22 Aug 5.7 20:18:39 10° SSW 20:21:47 16° WSW 20:24:53 10° WNW visible
23 Aug 4.2 05:49:06 10° NE 05:53:57 46° ESE 05:58:51 10° S visible
23 Aug 4.2 18:02:25 10° SE 18:06:18 21° E 18:10:09 10° NE visible
23 Aug 4.4 19:40:41 10° S 19:45:22 37° WSW 19:50:01 10° NW visible
24 Aug 5.6 05:13:47 10° ENE 05:17:30 21° ESE 05:21:12 10° SSE visible
24 Aug 3.0 19:03:35 10° SSE 19:08:46 87° WSW 19:13:51 10° NNW visible
25 Aug 3.4 18:27:09 10° SSE 18:31:58 39° E 18:36:42 10° NNE visible
25 Aug 5.4 20:06:54 10° SSW 20:10:39 21° WSW 20:14:23 10° WNW visible
26 Aug 4.7 05:38:09 10° NE 05:42:46 36° ESE 05:47:26 10° S visible
26 Aug 4.0 19:29:16 10° S 19:34:10 47° WSW 19:39:02 10° NW visible
27 Aug 5.9 05:03:18 10° ENE 05:06:22 16° ESE 05:09:26 10° SSE visible
27 Aug 2.9 18:52:22 10° SSE 18:57:31 74° ENE 19:02:35 10° N visible
27 Aug 6.1 20:34:11 10° SW 20:35:50 12° WSW 20:37:29 10° W visible
